Rochelle, IL

6:14 PM CST on November 18, 2017 (GMT -0600)
Rochelle

Weather History for KRPJ - March, 2013

Change the Weather History Date:

Thursday, March 21, 2013

  Actual Average (KRFD) Record (KRFD)
Temperature  
Mean Temperature 20 °F -  
Max Temperature 29 °F 46 °F 84 °F (2012)
Min Temperature 11 °F 27 °F 6 °F (1965)
Degree Days  
Heating Degree Days 45    
Moisture  
Dew Point 13 °F    
Average Humidity 71    
Maximum Humidity 84    
Minimum Humidity 58    
Precipitation  
Precipitation 0.00 in - - ()
Sea Level Pressure  
Sea Level Pressure 30.04 in    
Wind  
Wind Speed 8 mph (NW)    
Max Wind Speed 12 mph    
Max Gust Speed 21 mph    
Visibility 10 miles    
Events      
Averages and records for this station are not official NWS values.
T = Trace of Precipitation, MM = Missing Value Source: NWS Daily Summary

Daily Weather History Graph

Daily Weather History Graph

Search for Another Location

Airport or City:

Trip Planner

Search our weather history database for the weather conditions in past years. The results will help you decide how hot, cold, wet, or windy it might be!

Date:

Astronomy

Mar. 21, 2013 Rise Set
Actual Time 6:57 AM CDT 7:09 PM CDT
Civil Twilight 6:29 AM CDT 7:37 PM CDT
Nautical Twilight 5:57 AM CDT 8:10 PM CDT
Astronomical Twilight 5:23 AM CDT 8:43 PM CDT
Moon 1:35 PM CDT (3/21) 3:23 AM CDT (3/21)
Length of Visible Light 13h 08m
Length of Day
12h 12m
Waxing Gibbous, 69% of the Moon is Illuminated
Mar 21
Waxing Gibbous
Mar 27
Full
Apr 2
Last Quarter
Apr 10
New
Apr 18
First Quarter

Hourly Weather History & Observations

Time (CDT) Temp. Windchill Dew Point Humidity Pressure Visibility Wind Dir Wind Speed Gust Speed Precip Events Conditions
12:15 AM 15.8 °F 2.7 °F 8.6 °F 73% 30.07 in 10.0 mi NW 11.5 mph - N/A   Scattered Clouds
12:35 AM 15.4 °F 3.8 °F 9.0 °F 76% 30.06 in 10.0 mi WNW 9.2 mph - N/A   Clear
12:55 AM 14.9 °F 3.1 °F 9.3 °F 79% 30.06 in 10.0 mi NW 9.2 mph - N/A   Clear
1:15 AM 14.9 °F 3.1 °F 9.0 °F 77% 30.06 in 10.0 mi NW 9.2 mph - N/A   Clear
1:35 AM 14.5 °F 4.6 °F 9.1 °F 79% 30.06 in 10.0 mi NW 6.9 mph - N/A   Clear
1:55 AM 14.4 °F 3.3 °F 9.0 °F 79% 30.06 in 10.0 mi NW 8.1 mph - N/A   Clear
2:15 AM 13.8 °F 3.7 °F 8.6 °F 80% 30.06 in 10.0 mi NW 6.9 mph - N/A   Clear
2:35 AM 13.3 °F 4.2 °F 8.8 °F 82% 30.05 in 10.0 mi WNW 5.8 mph - N/A   Clear
3:15 AM 13.1 °F 2.8 °F 8.6 °F 82% 30.05 in 10.0 mi WNW 6.9 mph - N/A   Clear
3:35 AM 12.9 °F 1.6 °F 8.6 °F 83% 30.05 in 10.0 mi WNW 8.1 mph - N/A   Clear
3:55 AM 12.9 °F 2.6 °F 8.4 °F 82% 30.04 in 10.0 mi WNW 6.9 mph - N/A   Clear
4:15 AM 12.7 °F 3.6 °F 8.6 °F 84% 30.04 in 10.0 mi NW 5.8 mph - N/A   Clear
4:55 AM 12.7 °F 1.4 °F 7.3 °F 79% 30.04 in 10.0 mi NW 8.1 mph - N/A   Clear
5:15 AM 12.2 °F 1.7 °F 7.3 °F 81% 30.04 in 10.0 mi NW 6.9 mph - N/A   Clear
5:55 AM 12.0 °F 2.7 °F 7.3 °F 81% 30.05 in 10.0 mi West 5.8 mph - N/A   Clear
6:15 AM 11.8 °F 0.3 °F 7.5 °F 83% 30.06 in 10.0 mi WNW 8.1 mph - N/A   Clear
6:35 AM 11.7 °F 0.0 °F 7.5 °F 83% 30.06 in 10.0 mi WNW 8.1 mph - N/A   Clear
6:55 AM 11.8 °F 0.3 °F 6.8 °F 80% 30.06 in 10.0 mi NW 8.1 mph - N/A   Clear
7:15 AM 11.8 °F -1.5 °F 6.8 °F 80% 30.06 in 10.0 mi WNW 10.4 mph - N/A   Clear
7:35 AM 12.2 °F -0.2 °F 7.2 °F 80% 30.05 in 10.0 mi WNW 9.2 mph - N/A   Clear
7:55 AM 13.1 °F 1.8 °F 7.3 °F 78% 30.05 in 10.0 mi NNW 8.1 mph - N/A   Clear
8:15 AM 14.4 °F 2.4 °F 7.9 °F 75% 30.06 in 10.0 mi NNW 9.2 mph - N/A   Clear
8:35 AM 15.8 °F 5.1 °F 8.4 °F 73% 30.06 in 10.0 mi NNW 8.1 mph - N/A   Clear
8:55 AM 17.1 °F 6.6 °F 8.6 °F 69% 30.06 in 10.0 mi NW 8.1 mph - N/A   Clear
9:15 AM 18.3 °F 7.3 °F 8.8 °F 66% 30.07 in 10.0 mi NW 9.2 mph - N/A   Clear
9:35 AM 19.4 °F 8.6 °F 8.6 °F 63% 30.07 in 10.0 mi NNW 9.2 mph - N/A   Clear
9:55 AM 20.7 °F 10.2 °F 9.7 °F 63% 30.07 in 10.0 mi NNW 9.2 mph - N/A   Clear
10:15 AM 21.2 °F 11.7 °F 9.1 °F 60% 30.06 in 10.0 mi NW 8.1 mph - N/A   Clear
10:35 AM 22.1 °F 12.0 °F 9.5 °F 58% 30.06 in 10.0 mi NW 9.2 mph - N/A   Clear
10:55 AM 22.5 °F 13.2 °F 9.9 °F 59% 30.06 in 10.0 mi NW 8.1 mph - N/A   Clear
11:15 AM 23.0 °F 13.1 °F 10.6 °F 59% 30.06 in 10.0 mi West 9.2 mph 20.7 mph N/A   Clear
11:35 AM 23.9 °F 15.8 °F 12.4 °F 62% 30.06 in 10.0 mi WNW 6.9 mph - N/A   Clear
11:55 AM 24.4 °F 14.2 °F 11.7 °F 58% 30.06 in 10.0 mi WNW 10.4 mph - N/A   Clear
12:15 PM 25.2 °F 17.3 °F 13.3 °F 61% 30.06 in 10.0 mi WNW 6.9 mph - N/A   Clear
12:35 PM 25.7 °F 16.4 °F 12.7 °F 58% 30.06 in 10.0 mi West 9.2 mph - N/A   Clear
12:55 PM 26.2 °F 17.1 °F 13.5 °F 59% 30.05 in 10.0 mi West 9.2 mph - N/A   Clear
1:15 PM 26.4 °F 17.3 °F 14.7 °F 61% 30.05 in 10.0 mi WNW 9.2 mph - N/A   Clear
1:35 PM 27.0 °F 17.3 °F 15.6 °F 62% 30.05 in 10.0 mi WNW 10.4 mph - N/A   Clear
1:55 PM 27.3 °F 20.9 °F 14.5 °F 59% 30.05 in 10.0 mi WNW 5.8 mph - N/A   Clear
2:15 PM 27.9 °F 19.1 °F 16.0 °F 61% 30.05 in 10.0 mi WNW 9.2 mph - N/A   Clear
2:35 PM 28.2 °F 21.0 °F 16.9 °F 63% 30.04 in 10.0 mi WNW 6.9 mph - N/A   Clear
2:55 PM 28.2 °F 18.9 °F 16.7 °F 62% 30.04 in 10.0 mi NNW 10.4 mph - N/A   Clear
3:15 PM 28.4 °F 20.4 °F 16.0 °F 60% 30.04 in 10.0 mi WNW 8.1 mph - N/A   Clear
3:35 PM 28.4 °F 19.7 °F 15.6 °F 59% 30.03 in 10.0 mi NW 9.2 mph - N/A   Clear
3:55 PM 28.6 °F 18.7 °F 16.0 °F 59% 30.03 in 10.0 mi North 11.5 mph - N/A   Clear
4:15 PM 28.8 °F 20.9 °F 16.2 °F 59% 30.02 in 10.0 mi North 8.1 mph - N/A   Clear
4:35 PM 29.3 °F 21.5 °F 17.1 °F 60% 30.02 in 10.0 mi NNW 8.1 mph - N/A   Clear
4:55 PM 28.8 °F 20.2 °F 17.2 °F 62% 30.01 in 10.0 mi North 9.2 mph - N/A   Clear
5:15 PM 28.2 °F 21.0 °F 16.7 °F 62% 30.01 in 10.0 mi North 6.9 mph - N/A   Clear
5:35 PM 27.7 °F 20.4 °F 16.2 °F 62% 30.02 in 10.0 mi North 6.9 mph - N/A   Clear
5:55 PM 28.0 °F 21.7 °F 16.5 °F 62% 30.02 in 10.0 mi North 5.8 mph - N/A   Clear
6:15 PM 27.9 °F 21.5 °F 16.2 °F 62% 30.02 in 10.0 mi North 5.8 mph - N/A   Clear
6:35 PM 27.3 °F 20.9 °F 16.3 °F 63% 30.02 in 10.0 mi NNW 5.8 mph - N/A   Clear
6:55 PM 26.8 °F 19.3 °F 17.2 °F 67% 30.02 in 10.0 mi North 6.9 mph - N/A   Clear
7:15 PM 25.7 °F 18.0 °F 17.2 °F 70% 30.02 in 10.0 mi North 6.9 mph - N/A   Clear
7:35 PM 25.3 °F 19.7 °F 17.1 °F 71% 30.02 in 10.0 mi NNW 4.6 mph - N/A   Clear
7:55 PM 24.8 °F 19.1 °F 17.8 °F 75% 30.03 in 10.0 mi North 4.6 mph - N/A   Clear
8:15 PM 24.6 °F 18.8 °F 18.1 °F 76% 30.03 in 10.0 mi North 4.6 mph - N/A   Clear
8:35 PM 24.4 °F 20.1 °F 19.0 °F 80% 30.03 in 10.0 mi North 3.5 mph - N/A   Clear
8:55 PM 23.9 °F 19.5 °F 18.7 °F 80% 30.03 in 10.0 mi North 3.5 mph - N/A   Clear
9:15 PM 23.9 °F 19.5 °F 18.5 °F 80% 30.04 in 10.0 mi North 3.5 mph - N/A   Clear
9:35 PM 23.5 °F 19.1 °F 18.1 °F 80% 30.03 in 10.0 mi North 3.5 mph - N/A   Clear
9:55 PM 23.2 °F 18.7 °F 18.0 °F 80% 30.04 in 10.0 mi North 3.5 mph - N/A   Clear
10:15 PM 23.0 °F - 18.0 °F 81% 30.04 in 10.0 mi Calm Calm - N/A   Clear
10:35 PM 22.8 °F 16.7 °F 18.0 °F 82% 30.04 in 10.0 mi NNW 4.6 mph - N/A   Clear
10:55 PM 22.6 °F 16.5 °F 17.4 °F 80% 30.04 in 10.0 mi North 4.6 mph - N/A   Clear
11:15 PM 22.1 °F 17.4 °F 18.0 °F 84% 30.04 in 10.0 mi North 3.5 mph - N/A   Clear
11:35 PM 21.9 °F 17.2 °F 17.4 °F 83% 30.04 in 10.0 mi North 3.5 mph - N/A   Clear
11:55 PM 22.1 °F - 17.4 °F 82% 30.04 in 10.0 mi Calm Calm - N/A   Clear